sat.trackr.live / text

‹ back to catalog

STARLINK-2752

NORAD 48692 · 2021-044BG

PAYLOAD ACTIVE UNKNOWN

§ Identity

Operator
Country
US
Launch date
2021-05-26
Launch site
AFETR
Launch vehicle
Mass (kg)
RCS (m²)

Purposes: comms

External: N2YO · Heavens-Above · Gunter

§ Orbital elements

Epoch: 2026-09-19T23:19:04.983744Z

Period
94.01 min
Inclination
53.1597°
Eccentricity
0.0001000
Mean motion
15.31694349 rev/d
Perigee alt
470.1 km
Apogee alt
471.4 km
Semi-major
6,848.9 km
B*
3.2360e-5
RAAN
250.9494°
Arg perigee
83.2090°
Mean anomaly
276.9026°
Rev number
29,413

§ Raw data

STARLINK-27521 48692U 21044BG  26262.97158546  .00000639  00000+0  32360-4 0  99982 48692  53.1597 250.9494 0001000  83.2090 276.9026 15.31694349294133

JSON: /api/v1/satellites/48692 · /tle

For live sub-satellite position, see the globe view (requires WebGL).

§ Visibility from observer

Set your observer location to see the next 7 days of passes ≥ 10°. The values pass through the URL so the page stays shareable.

No JS? Fill the form by hand. The geolocation button needs JavaScript.